Regional Weather Roundup
Issued by NWS San Angelo, TX

Home | Current Version | Previous Version | Text Only | Print | Product List | Glossary On
Versions: 1 2 3 4 5 6 7 8 9 10 11 12 13 14 15 16 17 18 19 20 21 22 23 24 25 26 27 28 29 30 31 32 33 34 35 36 37 38 39 40 41 42 43 44 45 46 47 48 49 50
000
ASUS44 KSJT 211402
RWRSJT
WEST CENTRAL TEXAS REGIONAL WEATHER ROUNDUP
NATIONAL WEATHER SERVICE SAN ANGELO TX
900 AM CDT TUE OCT 21 2014

NOTE: "FAIR" INDICATES FEW OR NO CLOUDS BELOW 12,000 FEET WITH NO
SIGNIFICANT WEATHER AND/OR OBSTRUCTIONS TO VISIBILITY.

TXZ049-054-064>066-071>073-076>078-098-099-113-114-127-128-139-140-
154-155-168>170-211500
...LOCATIONS ACROSS WEST CENTRAL TEXAS...

CITY           SKY/WX    TMP DP  RH WIND       PRES   REMARKS
SAN ANGELO     MOSUNNY   58  53  84 CALM      30.12R
ABILENE        SUNNY     62  56  80 CALM      30.12R
DYESS AFB      SUNNY     60  55  81 CALM      30.11R
JUNCTION       MOSUNNY   55  52  89 CALM      30.11R
SWEETWATER     NOT AVBL
BROWNWOOD      NOT AVBL
COLEMAN        SUNNY     58  56  92 CALM      30.12R
SONORA         SUNNY     59  54  82 CALM      30.16R
OZONA          FAIR      59  55  88 CALM      30.14R
BRADY          NOT AVBL
$$

TEXAS PANHANDLE/OKLAHOMA PANHANDLE

CITY           SKY/WX    TMP DP  RH WIND       PRES   REMARKS
AMARILLO       CLOUDY    54  52  93 SW6       30.15R FOG
BORGER         SUNNY     57  51  80 CALM      30.12R
CANADIAN       SUNNY     56  55  94 CALM      30.09R
DALHART        MOSUNNY   53  47  79 CALM      30.14S
DUMAS          SUNNY     53  49  86 SW9       30.13R
GUYMON         NOT AVBL
HEREFORD       MOSUNNY   52  51  96 CALM      30.16R
PAMPA          PTSUNNY   60  54  80 SW6       30.13R
PERRYTON       NOT AVBL
$$

SOUTHERN PANHANDLE/SOUTH PLAINS/ROLLING PLAINS

CITY           SKY/WX    TMP DP  RH WIND       PRES   REMARKS
LUBBOCK        MOSUNNY   53  50  89 N5        30.14R
SNYDER         SUNNY     58  54  86 CALM      30.13R
CHILDRESS      SUNNY     63  55  75 CALM      30.11R
SEMINOLE       NOT AVBL
$$

PERMIAN BASIN

CITY           SKY/WX    TMP DP  RH WIND       PRES   REMARKS
MIDLAND        MOSUNNY   62  54  74 SE7       30.12R
ODESSA         PTSUNNY   63  55  75 SE6       30.13R
WINK           CLOUDY    63  59  87 SE10      30.08R
$$

FAR WEST/SOUTHWEST MOUNTAINS/TRANS PECOS

CITY           SKY/WX    TMP DP  RH WIND       PRES   REMARKS
ALPINE         CLOUDY    55  53  92 CALM      30.19R
DRYDEN           N/A     66  62  87 E10       30.06R
EL PASO        PTCLDY    58  54  86 N6        30.09R
FORT STOCKTON  CLOUDY    62  61  96 E6        30.10R
GUADALUPE PASS NOT AVBL
MARFA          MOSUNNY   52  50  93 SE3       30.15R
PECOS          NOT AVBL
$$

DALLAS/FORT WORTH METROPLEX

CITY           SKY/WX    TMP DP  RH WIND       PRES   REMARKS
DFW AIRPORT    MOSUNNY   64  59  83 CALM      30.11R
FTW MEACHAM    SUNNY     64  60  87 CALM      30.11R HAZE
DAL-EXECUTIVE  SUNNY     66  60  81 CALM      30.11R
GRAND PRAIRIE  NOT AVBL
ADDISON        NOT AVBL
MESQUITE       SUNNY     59  57  94 CALM      30.12R
LANCASTER      SUNNY     59  54  84 CALM      30.13R
$$

NORTH CENTRAL TEXAS

CITY           SKY/WX    TMP DP  RH WIND       PRES   REMARKS
SHRMAN/DENISON SUNNY     62  60  94 CALM      30.12R
GAINESVILLE    NOT AVBL
BRIDGEPORT     SUNNY     60  60 100 CALM      30.13R FOG
DENTON         SUNNY     60  58  92 CALM      30.11R FOG
WAXAHACHIE     SUNNY     63  62  96 CALM      30.13R
GRANBURY       SUNNY     60  58  91 CALM      30.12R FOG
$$

WESTERN NORTH TEXAS

CITY           SKY/WX    TMP DP  RH WIND       PRES   REMARKS
WICHITA FALLS  SUNNY     61  58  90 CALM      30.10R FOG
VERNON         SUNNY     63  57  82 CALM      30.11R
BRECKENRIDGE   NOT AVBL
COMANCHE       SUNNY     58  58 100 CALM      30.12R FOG
$$

CENTRAL AND SOUTH CENTRAL TEXAS

CITY           SKY/WX    TMP DP  RH WIND       PRES   REMARKS
AUSTIN/BERGSTM MOSUNNY   61  59  93 CALM      30.08R
WACO           SUNNY     61  58  90 CALM      30.10R FOG
HILLSBORO      NOT AVBL
TEMPLE         SUNNY     61  55  82 CALM      30.10R
KILLEEN-GRAY   NOT AVBL
FORT HOOD      SUNNY     67  61  81 CALM      30.10R
GEORGETOWN     SUNNY     61  57  88 N5        30.09R
LAGO VISTA     FAIR      64  60  85 NE3       30.10R
SAN MARCOS     SUNNY     64  55  72 N5        30.09R
NEW BRAUNFELS  SUNNY     67  62  84 NE5       30.07R
RANDOLPH AFB   SUNNY     66  60  80 NE5       30.08R
SAN ANTONIO    MOSUNNY   68  61  78 NE5       30.07R
STINSON        SUNNY     69  61  75 NE8       30.05R
PLEASANTON     NOT AVBL
LA GRANGE      SUNNY     62  59  91 CALM      30.06R
GIDDINGS       NOT AVBL
$$

EAST TEXAS

CITY           SKY/WX    TMP DP  RH WIND       PRES   REMARKS
PARIS          SUNNY     61  54  77 E8        30.12R
CLARKSVILLE    NOT AVBL
TYLER          SUNNY     63  56  78 CALM      30.12R
LONGVIEW       SUNNY     61  56  83 CALM      30.11R
PALESTINE      NOT AVBL
NACOGDOCHES    SUNNY     55  54  94 CALM      30.12R
$$

TEXAS HILL COUNTRY AND EDWARDS PLATEAU

CITY           SKY/WX    TMP DP  RH WIND       PRES   REMARKS
LLANO          NOT AVBL
HORSESHOE BAY  FAIR      61  61 100 CALM      30.10R FOG
KERRVILLE      NOT AVBL
FREDERICKSBRG  NOT AVBL
ROCKSPRINGS    NOT AVBL
HONDO          MOSUNNY   63  58  83 NE8       30.09R
UVALDE         CLOUDY    68  61  77 NE6       30.08R
DEL RIO        CLOUDY    69  62  78 E7        30.05R
$$

SOUTHEAST TEXAS

CITY           SKY/WX    TMP DP  RH WIND       PRES   REMARKS
COLLEGE STN    SUNNY     63  56  78 NE5       30.09R
CALDWELL       NOT AVBL
CROCKETT       SUNNY     63  61  94 CALM      30.13R
BRENHAM        NOT AVBL
HUNTSVILLE     SUNNY     56  54  93 CALM      30.09R
CONROE         SUNNY     62  56  80 CALM      30.08R
HOUSTON BUSH   MOSUNNY   64  56  75 NE6       30.06R
HOUSTON HOBBY  SUNNY     66  58  75 NE7       30.05R
PERLAND        SUNNY     67  61  81 NE6       30.06R
WHARTON        NOT AVBL
$$

THE UPPER TEXAS COAST

CITY           SKY/WX    TMP DP  RH WIND       PRES   REMARKS
ORANGE         SUNNY     60  60 100 CALM      30.08R
PORT ARTHUR    SUNNY     66  57  72 NE7       30.05R
GALVESTON      SUNNY     71  65  81 NE12      30.04R
ANGLETON       SUNNY     67  62  84 NE7       30.04R
BAY CITY         N/A     67  64  90 NE7       30.04R
$$

TEXAS COASTAL BEND, RIO GRANDE PLAINS DEEP SOUTH TEXAS

CITY           SKY/WX    TMP DP  RH WIND       PRES   REMARKS
VICTORIA       SUNNY     67  62  84 NE8       30.05R
BEEVILLE       FAIR      69  63  83 NE9       30.03R
ROCKPORT       SUNNY     72  66  81 NE9       30.01R
PORT ARANSAS   CLOUDY    74  69  85 NE10      29.99R
PORT LAVACA    NOT AVBL
CORPUS CHRISTI MOSUNNY   72  67  84 NE14      30.00R
KINGSVILLE NAS PTSUNNY   73  71  93 N10       30.00R FOG
COTULLA        SUNNY     70  63  78 E8        30.04R
LAREDO         PTSUNNY   71  69  93 NE9       30.04R
BROWNSVILLE    SUNNY     78  72  81 N3        29.94R
PORT ISABEL    SUNNY     81  71  71 E9        29.94R
HEBBRONVILLE   PTSUNNY   70  67  90 NE8       30.03R
MCALLEN        MOSUNNY   73  70  90 N6        29.98R
WESLACO        MOSUNNY   73  69  88 N5        29.96R
FALFURRIAS     CLOUDY    70  68  93 N5        29.99R
EDINBURG       PTSUNNY   74  71  88 N8        29.98R
$$


USA.gov is the U.S. government's official web portal to all federal, state and local government web resources and services.